Volver al catálogo

COSMOS 1030 DEB

LostHEO
NORAD 32972·DEBRIS·🇷🇺 Russia

Lanzado Sep 6, 1978 desde Plesetsk Cosmodrome

Loading…

Próximos Pases (próximas 24 horas)

TLE

ObsoletoSource: Space-Track

Época: Oct 15, 2009, 00:42 UTC

1 32972U 78083Q   09288.02967176 -.00000050  00000-0  10000-3 0  9994
2 32972  71.7866 340.2858 5009534 133.0081 283.3635  1.98342423 26792

Sigue COSMOS 1030 DEB en tiempo real con AllMySat

Download on the App Store